TimeCST,TemperatureF,Dew PointF,Humidity,Sea Level PressureIn,VisibilityMPH,Wind Direction,Wind SpeedMPH,Gust SpeedMPH,PrecipitationIn,Events,Conditions,WindDirDegrees,DateUTC
12:31 AM,33.8,33.8,100,29.52,0.5,WNW,5.8,-,N/A,Fog,Fog,300,2013-02-27 06:31:00
12:38 AM,33.8,33.8,100,29.52,0.2,WNW,6.9,-,N/A,Fog,Fog,300,2013-02-27 06:38:00
12:53 AM,33.1,33.1,100,29.55,0.2,West,8.1,-,N/A,Fog,Fog,270,2013-02-27 06:53:00
1:45 AM,33.8,33.8,100,29.55,0.5,West,11.5,-,N/A,Fog,Fog,260,2013-02-27 07:45:00
1:53 AM,33.1,33.1,100,29.57,0.5,WSW,11.5,-,N/A,Fog,Fog,250,2013-02-27 07:53:00
2:53 AM,33.1,33.1,100,29.58,0.8,West,12.7,-,N/A,,Mist,260,2013-02-27 08:53:00
3:51 AM,32.0,-9999,N/A,29.56,1.0,West,12.7,-,N/A,,Overcast,260,2013-02-27 09:51:00
3:53 AM,32.0,-9999,N/A,29.58,1.0,West,13.8,-,N/A,,Overcast,260,2013-02-27 09:53:00
4:53 AM,32.0,-9999,N/A,29.59,1.0,West,11.5,-,N/A,,Overcast,260,2013-02-27 10:53:00
5:53 AM,32.0,-9999,N/A,29.61,1.0,WSW,11.5,-,N/A,,Overcast,250,2013-02-27 11:53:00
6:53 AM,32.0,-9999,N/A,29.62,1.2,West,10.4,-,0.00,,Overcast,260,2013-02-27 12:53:00
7:42 AM,32.0,32.0,100,29.62,1.2,WSW,10.4,-,0.00,Rain,Light Freezing Rain,250,2013-02-27 13:42:00
7:53 AM,32.0,32.0,100,29.65,1.2,WSW,11.5,-,0.00,Rain,Light Freezing Rain,250,2013-02-27 13:53:00
8:08 AM,32.0,-9999,N/A,29.63,1.2,West,12.7,-,0.00,,Overcast,260,2013-02-27 14:08:00
8:53 AM,32.0,30.0,92,29.65,1.5,West,12.7,-,0.01,Snow,Light Snow,260,2013-02-27 14:53:00
9:33 AM,32.0,30.2,93,29.63,1.2,West,12.7,-,0.00,Snow,Light Snow,270,2013-02-27 15:33:00
9:53 AM,32.0,30.0,92,29.65,2.0,West,12.7,-,0.01,Snow,Light Snow,270,2013-02-27 15:53:00
10:13 AM,32.0,30.2,93,29.63,2.0,West,15.0,-,0.00,Snow,Light Snow,260,2013-02-27 16:13:00
10:38 AM,32.0,30.2,93,29.64,1.8,West,17.3,-,0.00,Snow,Light Snow,260,2013-02-27 16:38:00
10:53 AM,32.0,28.9,88,29.66,2.0,West,17.3,-,0.00,Snow,Light Snow,260,2013-02-27 16:53:00
11:21 AM,32.0,28.4,87,29.65,3.0,West,18.4,-,0.00,Snow,Light Snow,270,2013-02-27 17:21:00
11:53 AM,32.0,28.9,88,29.66,3.0,West,18.4,-,0.00,Snow,Light Snow,270,2013-02-27 17:53:00
11:56 AM,33.8,28.4,81,29.64,3.0,West,17.3,-,0.00,Snow,Light Snow,270,2013-02-27 17:56:00
12:50 PM,33.8,28.4,81,29.64,3.0,West,16.1,-,0.00,Snow,Light Snow,270,2013-02-27 18:50:00
12:53 PM,33.1,28.9,85,29.67,3.0,West,16.1,-,0.00,Snow,Light Snow,270,2013-02-27 18:53:00
1:53 PM,33.1,28.9,85,29.68,2.5,West,17.3,25.3,0.00,Snow,Light Snow,270,2013-02-27 19:53:00
2:07 PM,33.8,30.2,87,29.66,1.8,West,19.6,-,0.00,Snow,Light Snow,270,2013-02-27 20:07:00
2:10 PM,33.8,30.2,87,29.66,2.0,West,18.4,24.2,0.00,Snow,Light Snow,260,2013-02-27 20:10:00
2:19 PM,32.0,28.4,87,29.66,1.8,West,19.6,-,0.00,Snow,Light Snow,270,2013-02-27 20:19:00
2:27 PM,32.0,28.4,87,29.66,1.8,West,19.6,-,0.00,Snow,Light Snow,270,2013-02-27 20:27:00
2:46 PM,33.8,28.4,81,29.67,2.0,West,18.4,-,0.00,Snow,Light Snow,270,2013-02-27 20:46:00
2:53 PM,33.1,28.9,85,29.69,2.0,West,20.7,-,0.00,Snow,Light Snow,270,2013-02-27 20:53:00
3:14 PM,33.8,28.4,81,29.68,3.0,West,18.4,-,0.00,Snow,Light Snow,270,2013-02-27 21:14:00
3:29 PM,32.0,28.4,87,29.68,2.5,West,17.3,21.9,0.00,Snow,Light Snow,270,2013-02-27 21:29:00
3:46 PM,33.8,28.4,81,29.68,4.0,West,15.0,-,0.00,Snow,Light Snow,280,2013-02-27 21:46:00
3:53 PM,33.1,28.9,85,29.70,4.0,West,18.4,-,0.00,Snow,Light Snow,280,2013-02-27 21:53:00
4:53 PM,32.0,28.0,85,29.72,5.0,West,13.8,-,0.00,,Overcast,270,2013-02-27 22:53:00
5:53 PM,32.0,28.9,88,29.74,7.0,West,16.1,-,0.00,,Overcast,270,2013-02-27 23:53:00
6:04 PM,32.0,28.4,87,29.72,7.0,West,16.1,-,N/A,,Overcast,270,2013-02-28 00:04:00
6:53 PM,32.0,28.0,85,29.75,8.0,West,15.0,-,0.00,Snow,Light Snow,270,2013-02-28 00:53:00
8:53 PM,32.0,28.9,88,29.76,8.0,West,16.1,-,N/A,,Overcast,270,2013-02-28 02:53:00
9:15 PM,32.0,28.4,87,29.74,7.0,West,15.0,-,N/A,,Overcast,280,2013-02-28 03:15:00
9:46 PM,32.0,28.4,87,29.75,7.0,West,15.0,-,N/A,,Overcast,280,2013-02-28 03:46:00
9:53 PM,32.0,28.9,88,29.77,7.0,West,16.1,-,0.00,Snow,Light Snow,270,2013-02-28 03:53:00
10:19 PM,32.0,28.4,87,29.75,7.0,West,16.1,-,0.00,Snow,Light Snow,280,2013-02-28 04:19:00
10:53 PM,32.0,28.9,88,29.77,6.0,West,17.3,23.0,0.00,Snow,Light Snow,280,2013-02-28 04:53:00
11:04 PM,32.0,28.4,87,29.74,7.0,West,16.1,-,N/A,,Overcast,280,2013-02-28 05:04:00
11:53 PM,32.0,28.9,88,29.77,3.0,West,17.3,-,0.00,Snow,Light Snow,280,2013-02-28 05:53:00